Location: Pasarilla del Rebollar
(40.6790°N, 5.0062°W)
Time: 11:12:55
(UTC+00:00)

Cosmos 540 Rocket - Pass Details

Date: 22 April 2026
Orbit: 735 x 747 km, 74.1° (Epoch: 20 May)

Event Time Altitude Azimuth Distance (km) Brightness Sun altitude
Exits shadow 02:41:22 73° 77° (ENE) 780 3.5 -27.7°
Drops below altitude 10° 02:46:15 10° 22° (NNE) 2,270 6.8 -27.1°
Sets 02:48:37 0° 21° (NNE) 3,199 7.8 -26.8°
